IRIDIUM 76 [-] (25432 NORAD) Tracking and Keplerian Element Data

This shows tracking and keplerian element data for the satellite.

Feedback or suggestion? Click here.




ElementValue
Catalog25432
NameIRIDIUM 76 [-]
Epoch Orbit4855
Epoch Day240.38235254
Epoch Year2018
RAAN71.9444
Inclination86.7486
Eccentricity0.0039163
Argument of Perigee101.2964
Mean Anonmoly260.8072
Mean Motion16.4933845
Decay Rate0.32746209
L11 25432U 98048B 18240.38235254 .32746209 -16288-5 24999-3 0 9992
L22 25432 86.7486 71.9444 0039163 101.2964 260.8072 16.49338450 48551



Live tracking and technical data element details for IRIDIUM 76 [-] (NORAD 25432). IRIDIUM 76 [-] can be tracked NOW for your location showing map with azimuth and elevation plus other details from your city location.







IsCatalogInMostPopularTable: catalog: 25432, numindb: 427
Update: records affected: 1



GetName: 25432 IRIDIUM 76 [-]

Hit Count: updated at: Thu, 22 May 2025 04:03:43 GMT